User: anonymous   Login
Location: Black Rock Desert
(40.7548°N, 119.2364°W)
Time: 06:10:10
(UTC-07:00)
Language:

Cosmos 1340 Rocket - Orbit

View from above orbital plane
View from above orbital plane
View from above satellite
View from above satellite

Ground track
Ground track

The orbit data is extracted from the following two-line orbital elements,

1 13068U 82013B   15110.14904817  .00004110  00000-0  28155-3 0  9994
2 13068 081.2057 042.5611 0023657 041.8574 318.4452 15.05633702804702
Epoch (UTC): 20 April 2015 03:34:37
Eccentricity: 0.0023657
inclination: 81.2057°
perigee height: 533 km
apogee height: 566 km
right ascension of ascending node: 42.5611°
argument of perigee: 41.8574°
revolutions per day: 15.05633702
mean anomaly at epoch: 318.4452°
orbit number at epoch: 80470

The dashed part of the orbit path shows where the satellite is in the earth's shadow,  

DLR